Regional Weather Roundup
Issued by NWS

Home | Current Version | Previous Version | Graphics & Text | Print | Product List | Glossary On
Versions: 1 2 3 4 5 6 7 8 9 10 11 12 13 14 15 16 17 18 19 20 21 22 23 24 25 26 27 28 29 30 31 32 33 34 35 36 37 38 39 40 41 42 43 44 45 46 47 48 49 50
417
ASUS44 KJAN 231803
RWRMS

MISSISSIPPI HOURLY WEATHER ROUNDUP
NATIONAL WEATHER SERVICE JACKSON MS
100 PM CDT TUE SEP 23 2014

NOTE: "FAIR: INDICATES FEW OR NO CLOUDS BELOW 12,000 FEET WITH NO
SIGNIFICANT WEATHER AND/OR OBSTRUCTIONS TO VISIBILITY.

MSZ001>002-007>008-010>013-018>021-025>028-034>036-231900-
NORTHWEST MISSISSIPPI

CITY           SKY/WX    TMP DP  RH WIND       PRES   REMARKS
CLARKSDALE     FAIR      77  41  27 NE10      30.22F
CLEVELAND      FAIR      79  45  30 NE3       30.19F
GREENWOOD      SUNNY     79  51  37 VRB3      30.18F
6HR MIN TEMP:  48; 6HR MAX TEMP:  79;

GREENVILLE     SUNNY     80  43  26 NE10G16   30.18F
6HR MIN TEMP:  54; 6HR MAX TEMP:  80;

GRENADA        FAIR      77  52  41 E9        30.20S
OLIVE BRANCH   MOSUNNY   73  48  40 N8        30.23F
OXFORD         FAIR      73  50  43 SE3       30.23S
TUNICA         CLEAR     77  43  29 NE9       30.22F
$$

MSZ003>006-009-014>017-022>024-029>033-037>039-231900-
NORTHEAST MISSISSIPPI

CITY           SKY/WX    TMP DP  RH WIND       PRES   REMARKS
COLUMBUS AFB   SUNNY     78  56  46 CALM      30.18F
6HR MIN TEMP:  50; 6HR MAX TEMP:  78;

CORINTH        FAIR      77  52  41 CALM      30.21F
GOLDN TRIANGLE SUNNY     77  55  47 NE3       30.19F
STARKVILLE     FAIR      77  54  44 NE3       30.18F
TUPELO         SUNNY     77  54  44 VRB7      30.20S
$$

MSZ040-058-231900-
CENTRAL MISSISSIPPI

CITY           SKY/WX    TMP DP  RH WIND       PRES   REMARKS
JACKSON INTL   MOSUNNY   79  55  43 E7        30.16F
6HR MIN TEMP:  57; 6HR MAX TEMP:  79;

JACKSON HAWKNS SUNNY     80  51  36 VRB5      30.16F
6HR MIN TEMP:  58; 6HR MAX TEMP:  80;

MERIDIAN KEY   SUNNY     80  54  40 SE10      30.15S
6HR MIN TEMP:  53; 6HR MAX TEMP:  80;

MERIDIAN NAS   SUNNY     82  55  39 E12G17    30.16S
6HR MIN TEMP:  55; 6HR MAX TEMP:  83;

RAYMOND        FAIR      77  73  88 E3        30.17S
VICKSBURG      SUNNY     79  51  37 VRB5      30.16F
6HR MIN TEMP:  57; 6HR MAX TEMP:  79;

$$

MSZ059>079-231900-
SOUTH MISSISSIPPI

CITY           SKY/WX    TMP DP  RH WIND       PRES   REMARKS
BROOKHAVEN     FAIR      77  52  41 N5        30.16F
COLUMBIA       FAIR      81  54  39 VRB7      30.12F
HATTIESBURG    SUNNY     81  55  40 E10       30.12F
6HR MIN TEMP:  55; 6HR MAX TEMP:  81;

MCCOMB         SUNNY     79  52  38 VRB7      30.13F
6HR MIN TEMP:  58; 6HR MAX TEMP:  80;

NATCHEZ        SUNNY     77  55  47 N9        30.15F
6HR MIN TEMP:  55; 6HR MAX TEMP:  77;

PINE BELT      SUNNY    N/A N/A N/A NE7       30.14S
$$

MSZ080>082-231900-
COASTAL MISSISSIPPI

CITY           SKY/WX    TMP DP  RH WIND       PRES   REMARKS
BAY ST LOUIS   SUNNY     82  46  28 NE8       30.09F
BILOXI         SUNNY     83  55  37 E7        30.09S
6HR MIN TEMP:  62; 6HR MAX TEMP:  83;

PASCAGOULA     SUNNY     83  58  42 N10       30.08F
6HR MIN TEMP:  55; 6HR MAX TEMP:  83;

GULFPORT       SUNNY     82  54  37 N8        30.08F
6HR MIN TEMP:  60; 6HR MAX TEMP:  82;

$$



USA.gov is the U.S. government's official web portal to all federal, state and local government web resources and services.